Regional Weather Roundup
Issued by NWS

Home | Current Version | Previous Version | Text Only | Print | Product List | Glossary On
Versions: 1 2 3 4 5 6 7 8 9 10 11 12 13 14 15 16 17 18 19 20 21 22 23 24 25 26 27 28 29 30 31 32 33 34 35 36 37 38 39 40 41 42 43 44 45 46 47 48 49 50
000
ASUS42 KFFC 251110
RWRGA
WEATHER ROUNDUP FOR GEORGIA
NATIONAL WEATHER SERVICE PEACHTREE CITY GA
700 AM EDT WED APR 25 2018

NOTE: "FAIR" INDICATES FEW OR NO CLOUDS BELOW 12,000 FEET WITH NO
SIGNIFICANT WEATHER AND/OR OBSTRUCTIONS TO VISIBILITY.

* = USE WITH CAUTION. THE STATIONS MARKED WITH AN ASTERISK MAY NOT
REPORT WEATHER SUCH AS PRECIPITATION, FOG, OR THUNDER AND ARE NOT
QUALITY CONTROLLED BY NWS.

THE REMARK "TC" DENOTES TEMPERATURE READING IN DEGREES CELSIUS.

GAZ001>058-251200-
NORTH GEORGIA

CITY           SKY/WX    TMP DP  RH WIND       PRES   REMARKS
ATLANTA        FAIR      54  54 100 W7        29.90R
ATHENS         FAIR      54  53  97 W5        29.84R
CHAMBLEE       MOCLDY    55  52  89 W9        29.89R
PEACHTREE CITY MOCLDY    54  52  93 W3        29.92R
ROME           FAIR      53  53 100 CALM      29.91R
WEST ATLANTA   MOCLDY    55  55 100 NW5       29.90R
GAINESVILLE    FAIR      53  52  96 W12       29.87R
CARTERSVILLE   CLOUDY    55  55 100 CALM      29.92R


CITY           SKY/WX    TMP DP  RH WIND       PRES   REMARKS
DALTON*        CLOUDY    54  52  94 NW5       29.92R
LAWRENCEVILLE* FAIR      55  52  88 W8        29.87
MARIETTA       MOCLDY    56  53  90 W10       29.89R
KENNESAW*      MOCLDY    56  53  90 W6        29.91R
CANTON*        FAIR      55  52  88 NW8       29.89S
BLAIRSVILLE*   CLOUDY    53  50  91 CALM      29.90R
$$

GAZ059>098-102>109-251200-
CENTRAL GEORGIA

CITY           SKY/WX    TMP DP  RH WIND       PRES   REMARKS
AUGUSTA-BUSH   FAIR      54  53  97 CALM      29.82S
AUGUSTA-DANIEL FAIR      58  54  86 CALM      29.83R
COLUMBUS       FAIR      55  52  89 NW6       29.92R
MACON          FAIR      54  53  97 W7        29.88R
ROBINS AFB     CLEAR     56  54  91 NW5       29.88R


CITY           SKY/WX    TMP DP  RH WIND       PRES   REMARKS
LAGRANGE*      FAIR      53  52  98 NW3       29.93R
SYLVANIA*      FAIR      57  56  97 CALM      29.86R
MILLEDGEVILLE* FAIR      55  54  94 W5        29.87R
$$

GAZ099>101-110>166-251200-
SOUTH GEORGIA

CITY           SKY/WX    TMP DP  RH WIND       PRES   REMARKS
SAVANNAH       FAIR      58  55  90 W7        29.87R
VALDOSTA       FAIR      54  52  93 CALM      29.92R
ALMA           FAIR      58  55  90 W3        29.89R
ST SIMONS      FAIR      63  57  81 W7        29.89R
FT STEWART     FAIR      58  54  88 W6        29.86R
ALBANY         FAIR      55  54  96 W6        29.95R
HUNTER AFB     FAIR      59  55  86 SW7       29.84R
MOODY AFB      FAIR      57  55  91 W6        29.91R
BRUNSWICK      FAIR      59  54  82 W5        29.90R


CITY           SKY/WX    TMP DP  RH WIND       PRES   REMARKS
BAINBRIDGE*      N/A     57  57 100 W6        29.95R
MOULTRIE*      FAIR      55  54  94 W3        29.94R
VIDALIA*       FAIR      57  55  94 W6        29.88R
WAYCROSS*      FAIR      57  54  90 W6        29.90R
DOUGLAS*       FAIR      55  55 100 W5        29.92R
$$




USA.gov is the U.S. government's official web portal to all federal, state and local government web resources and services.